Date,TemperatureHighF,TemperatureAvgF,TemperatureLowF,DewpointHighF,DewpointAvgF,DewpointLowF,HumidityHigh,HumidityAvg,HumidityLow,PressureMaxIn,PressureMinIn,WindSpeedMaxMPH,WindSpeedAvgMPH,GustSpeedMaxMPH,PrecipitationSumIn
2013-1-12,68,65,62,62,58,56,99,80,72,30.15,30.06,0,-999,0,0.00
2013-1-13,66,62,59,61,58,55,98,88,75,30.12,30.03,0,-999,0,0.00
2013-1-14,61,56,47,60,55,47,99,98,97,30.10,30.02,0,-999,0,0.00
2013-1-15,60,56,47,59,55,46,99,98,98,30.09,29.95,0,-999,0,0.00
2013-1-16,61,56,50,60,56,50,99,99,98,29.98,29.89,1,-895,0,0.00
2013-1-17,54,47,33,54,46,31,99,99,93,30.19,29.65,0,-999,0,0.00
2013-1-18,52,41,32,33,26,21,93,59,31,30.43,30.18,6,-588,0,0.00
2013-1-19,51,42,34,27,24,23,65,50,34,30.40,30.19,10,-588,0,0.00
2013-1-20,58,48,38,36,31,25,69,53,37,30.19,30.06,6,-592,0,0.00
2013-1-21,55,45,32,32,24,15,61,45,32,30.09,30.03,6,-570,0,0.00
2013-1-22,38,31,24,15,9,6,54,41,27,30.23,30.06,7,-572,0,0.00
2013-1-23,46,36,25,33,18,7,65,50,37,30.29,30.12,6,-612,0,0.00
2013-1-24,47,42,34,40,22,-2,82,48,21,30.31,30.05,7,-543,0,0.00
2013-1-25,35,30,27,11,6,4,42,37,31,30.31,30.26,0,-999,0,0.00
2013-1-26,-200,0,200,-100,-100,-100,0,0,100,30.16,30.16,6,6,0,0.00
2013-1-27,-200,0,200,-100,-100,-100,0,0,100,30.40,30.34,13,9,0,0.00
2013-1-29,-200,0,200,-100,-100,-100,0,0,100,30.19,30.05,7,2,0,0.00
2013-2-1,-200,0,200,-100,-100,-100,0,0,100,30.24,30.17,7,4,0,0.00
2013-2-2,-200,0,200,-100,-100,-100,0,0,100,30.24,30.19,10,6,0,0.00
2013-2-16,-200,0,200,-100,-100,-100,0,0,100,29.91,29.88,6,4,0,0.00
2013-2-24,-200,0,200,-100,-100,-100,0,0,100,29.95,29.92,7,5,0,0.00
2013-2-25,-200,0,200,-100,-100,-100,0,0,100,29.97,29.83,14,12,0,0.00
2013-2-26,-200,0,200,-100,-100,-100,0,0,100,29.56,29.56,17,15,0,0.00
2013-3-15,-200,0,200,-100,-100,-100,0,0,100,30.00,29.95,9,7,0,0.00
2013-3-16,-200,0,200,-100,-100,-100,0,0,100,29.97,29.85,11,6,0,0.00
2013-3-20,-200,0,200,-100,-100,-100,0,0,100,30.04,29.85,7,5,0,0.00
2013-3-22,-200,0,200,-100,-100,-100,0,0,100,29.98,29.91,4,2,0,0.00
2013-3-24,-200,0,200,-100,-100,-100,0,0,100,29.61,29.49,10,5,0,0.00
2013-3-25,-200,0,200,-100,-100,-100,0,0,100,29.89,29.70,6,4,0,0.00
2013-4-7,-200,0,200,-100,-100,-100,0,0,100,30.18,30.06,8,4,0,0.00
2013-4-8,-200,0,200,-100,-100,-100,0,0,100,30.14,30.06,8,5,0,0.00
2013-4-9,-200,0,200,-100,-100,-100,0,0,100,30.20,30.10,6,3,0,0.00
2013-4-10,-200,0,200,-100,-100,-100,0,0,100,30.13,29.97,6,3,0,0.00
2013-4-11,-200,0,200,-100,-100,-100,0,0,100,29.89,29.71,8,4,0,0.00
2013-4-12,-200,0,200,-100,-100,-100,0,0,100,29.84,29.77,7,4,0,0.00
2013-4-13,-200,0,200,-100,-100,-100,0,0,100,30.01,29.93,7,3,0,0.00
2013-4-14,-200,0,200,-100,-100,-100,0,0,100,30.04,29.89,13,7,0,0.00
2013-4-15,-200,0,200,-100,-100,-100,0,0,100,30.06,30.02,4,2,0,0.00
2013-4-16,-200,0,200,-100,-100,-100,0,0,100,30.24,30.17,5,2,0,0.00
2013-4-17,-200,0,200,-100,-100,-100,0,0,100,30.23,30.10,5,3,0,0.00
2013-4-18,-200,0,200,-100,-100,-100,0,0,100,30.10,29.94,7,4,0,0.00
2013-4-20,-200,0,200,-100,-100,-100,0,0,100,30.16,30.08,4,2,0,0.00
2013-4-21,-200,0,200,-100,-100,-100,0,0,100,30.31,30.22,11,7,0,0.00
2013-4-22,-200,0,200,-100,-100,-100,0,0,100,30.29,30.13,11,5,0,0.00
2013-4-23,-200,0,200,-100,-100,-100,0,0,100,30.21,30.07,9,4,0,0.00
2013-4-25,-200,0,200,-100,-100,-100,0,0,100,30.24,30.15,5,3,0,0.00
2013-4-26,-200,0,200,-100,-100,-100,0,0,100,30.36,30.27,6,3,0,0.00
2013-4-27,-200,0,200,-100,-100,-100,0,0,100,30.28,30.18,10,8,0,0.00
2013-4-29,-200,0,200,-100,-100,-100,0,0,100,30.04,29.93,5,2,0,0.00
2013-4-30,-200,0,200,-100,-100,-100,0,0,100,30.03,30.03,4,4,0,0.00
2013-5-1,-200,0,200,-100,-100,-100,0,0,100,30.18,30.12,11,7,0,0.00
2013-5-2,-200,0,200,-100,-100,-100,0,0,100,30.19,30.12,9,7,0,0.00
2013-5-3,-200,0,200,-100,-100,-100,0,0,100,30.06,30.05,11,10,0,0.00
2013-5-4,-200,0,200,-100,-100,-100,0,0,100,29.90,29.90,12,12,0,0.00
2013-5-5,-200,0,200,-100,-100,-100,0,0,100,29.82,29.73,6,3,0,0.00
2013-5-7,-200,0,200,-100,-100,-100,0,0,100,29.92,29.88,5,1,0,0.00
2013-5-8,-200,0,200,-100,-100,-100,0,0,100,30.04,29.99,6,2,0,0.00
2013-5-9,-200,0,200,-100,-100,-100,0,0,100,30.12,30.05,5,2,0,0.00
2013-5-10,-200,0,200,-100,-100,-100,0,0,100,30.10,29.98,5,2,0,0.00
2013-5-11,-200,0,200,-100,-100,-100,0,0,100,29.97,29.89,4,2,0,0.00
2013-5-12,-200,0,200,-100,-100,-100,0,0,100,30.04,29.98,6,3,0,0.00
2013-5-13,-200,0,200,-100,-100,-100,0,0,100,30.20,30.11,5,2,0,0.00
2013-5-14,-200,0,200,-100,-100,-100,0,0,100,30.25,30.11,5,2,0,0.00
2013-5-15,-200,0,200,-100,-100,-100,0,0,100,30.17,30.04,5,2,0,0.00
2013-5-17,-200,0,200,-100,-100,-100,0,0,100,30.10,30.05,3,1,0,0.00
2013-5-18,-200,0,200,-100,-100,-100,0,0,100,30.10,30.07,2,0,0,0.00
2013-5-19,-200,0,200,-100,-100,-100,0,0,100,30.10,30.09,5,4,0,0.00
2013-5-20,-200,0,200,-100,-100,-100,0,0,100,30.12,30.04,7,2,0,0.00
2013-5-21,-200,0,200,-100,-100,-100,0,0,100,30.06,29.93,3,2,0,0.00
2013-5-22,-200,0,200,-100,-100,-100,0,0,100,30.00,29.88,6,2,0,0.00
2013-5-23,-200,0,200,-100,-100,-100,0,0,100,29.99,29.93,4,2,0,0.00
2013-5-24,-200,0,200,-100,-100,-100,0,0,100,30.18,30.06,4,2,0,0.00
2013-5-25,-200,0,200,-100,-100,-100,0,0,100,30.31,30.20,4,2,0,0.00
2013-5-26,-200,0,200,-100,-100,-100,0,0,100,30.27,30.18,4,1,0,0.00
2013-5-27,-200,0,200,-100,-100,-100,0,0,100,30.25,30.14,7,2,0,0.00
2013-5-28,-200,0,200,-100,-100,-100,0,0,100,30.22,30.14,3,1,0,0.00
2013-5-29,-200,0,200,-100,-100,-100,0,0,100,30.25,30.16,4,2,0,0.00
2013-5-30,-200,0,200,-100,-100,-100,0,0,100,30.27,30.15,4,2,0,0.00
2013-5-31,-200,0,200,-100,-100,-100,0,0,100,30.23,30.11,3,1,0,0.00
2013-6-1,-200,0,200,-100,-100,-100,0,0,100,30.12,30.03,2,1,0,0.00
2013-6-2,-200,0,200,-100,-100,-100,0,0,100,30.00,29.96,2,1,0,0.00
2013-6-3,-200,0,200,-100,-100,-100,0,0,100,29.98,29.91,3,1,0,0.00
2013-6-4,-200,0,200,-100,-100,-100,0,0,100,30.04,30.00,3,1,0,0.00
2013-6-5,-200,0,200,-100,-100,-100,0,0,100,30.07,29.94,6,2,0,0.00